Location: Unspecified
(42.7170°S, 0.0000°E)
Time: 13:51:11
(UTC+00:00)

N. Korean satellite - Pass Details

Date: 22 May 2019
Orbit: 455 x 510 km, 97.2° (Epoch: 23 June)

Event Time Altitude Azimuth Distance (km) Brightness Sun altitude
Exits shadow 17:36:43 - 154° (SSE) 2,063 9.3 -10.2°
Reaches altitude 10° 17:37:36 10° 149° (SSE) 1,721 8.9 -10.3°
Maximum altitude 17:41:00 34° 83° (E) 857 7.3 -10.9°
Drops below altitude 10° 17:44:24 10° 17° (NNE) 1,721 9.4 -11.5°
Sets 17:46:37 0° 7° (N) 2,603 10.4 -11.9°
